STARLINK-34618, 64770

Orbit data source: Space-Track

STARLINK-34618, 64770 is a payload satellite owned by SpaceX/Seattle (US) in LEO that was launched on Tue, 08 Jul 2025 UTC via an FALCON 9 launch vehicle from the Air Force Eastern Test Range (AFETR). Payload-class satellites include a variety of spacecraft equipped with specific instruments for various scientific and technological missions. These include communications satellites like Starlink; space stations such as the ISS; scientific satellites like the Hubble; Earth observation satellites from companies like Planet Labs, Umbra, and HawkEye 360; GPS; miniature CubeSats for education and research; and military/defense satellites.

Loading next visibility...
Identifier
64770, 2025-147R
Orbit
LEO
Country
Flag of USUS
Related business
Manufacturer
SpaceX/Seattle
Mission
Operational Commercial Communications
Bus & Motor
STARLINK V2MO, Unknown motor
Mass
575 kg wet, ~530 kg dry
Launch date (UTC)
2025-07-08 (1 year ago)
Launch vehicle
FALCON 9
Launch site
Air Force Eastern Test Range (AFETR)
Object type
Payload
Rocket body
Debris
Shape & HBR
Box + 1 Pan, 17.7 m
Radar Cross Section
41.120 m², Large (>1 m²)

Expand to show TLE details & history
Last TLE update: 11 hours ago

TLE from 11 hours ago
0 STARLINK-34618
1 64770U 25147R   26235.57156865  .00016852  00000-0  50880-3 0  9990
2 64770  53.1569 183.9513 0002245  84.2736 275.8523 15.34398173 64284
Epoch: 2026-08-23T13:43Z
TLE epoch observation values (Epoch: 2026-08-23T13:43:03.531Z)
Latitude
0.00003°
Longitude
6.3209°
Altitude
463.453 km
Speed
7.636 km/s
True Right ascension
12h 15m 48s
True Declination
0° 00' 00"
Sunlit
Object was in daylight at epoch
Visualization orbit readout
Latitude
Unknown
Longitude
Unknown
Altitude
Unknown
Speed
Unknown
Apparent Right ascension
Unknown
Apparent Declination
Unknown
Sunlit
N/A
Visualization observer readout
Local Sidereal Time
15:54:11
Azimuth
Unknown
Elevation
Unknown
Doppler factor
Unknown
Orbital elements
Apogee altitude
464.502 km
Perigee altitude
461.43 km
Semi-major axis
6,841.103 km
Eccentricity
0.00022
Inclination
53.1569°
RAAN
183.9513°
Arg. of periapsis
84.2736°
True anomaly
275.82671°
Mean anomaly
275.8523°
Eccentric anomaly
275.8395°
Mean motion
3.83578 °/min
Orbital period
93.85 mins
BSTAR
0.0005088
Loading maneuver chart data...
Computing Atmospheric mass density...
Loading historical data...
Loading historical data...
Loading historical data...
Loading historical data...
Loading historical data...
Loading historical data...
Loading historical data...

Documentation

Showing up to 5 results
|